Find Starlink 36187

NORAD ID: 68613 Int'l Des: 2026-073 Owner: SPXS Country: US Constellation: starlink operational
LEOCIRCULARRETROGRADE

Live Position

Loading 3D Globe...

About Starlink 36187

Description loading...

Upcoming Passes

Passes for default location (London). Set your location on the main map for personalized predictions.

Altitude History

Loading altitude history...

Two-Line Element Set

1 68613U 26073M 26139.50002315 -.01854098 00000-0 -22905-1 0 9995
2 68613 97.2841 338.8597 0001808 82.0565 130.1383 15.63161215 6009
Epoch: May 19, 2026 • Age: 10 hours

Current Status

Altitude 398.0 km
Velocity 7.67 km/s
Sub-Earth Point -37.63°S, 141.92°E
Launch Date Apr 7, 2026
Age 0.1 years
Type internet

Technical Details

Classification Payload
Mass 575.00 kg
Dry Mass 530.00 kg
Total Mass 575.00 kg
Length 0.30 m
Diameter 4.10 m
Span 29.00 m
Shape Box + pan
Manufacturer SPXS
Bus Type Starlink V2MO
Phase Status In Orbit
Owner/State SPXS/US

Most Searched